RH
72 77 80 84 83 78 85 86 84 81 92 91 91 90 85 83 87 94 91 86 90 89 88 90 89 87 90 87 91 91 91 92 91 90 87 84 88 87 80 82 81 85 95
74 76 77 85 85 86 84 89 86 84 87 86 93 92 93 89 91 90 90 80 89 90 86 90 88 79 90 93 95 92 94 94 95 92 94 89 92 87 89 91 79 78 85
76 78 81 82 86 83 83 87 92 88 86 92 91 91 90 90 93 90 89 90 88 88 89 90 87 91 93 91 93 95 96 91 96 96 96 94 90 88 87 90 89 90 87
75 77 80 80 82 81 82 85 89 88 88 89 91 92 94 90 92 89 89 90 90 86 87 92 92 93 92 92 92 93 94 91 93 96 97 97 96 90 95 95 96 96 93
74 75 76 75 76 79 82 85 89 90 88 89 95 94 90 88 82 94 93 93 93 89 89 91 92 90 90 92 88 92 94 95 97 98 98 98 97 97 96 97 98 98 95
85 72 72 76 77 79 82 84 87 92 92 93 92 95 96 78 82 89 92 95 95 95 95 94 92 89 90 91 92 89 86 90 96 99 98 98 96 97 98 98 99 99 99
86 73 71 76 77 79 80 84 86 92 95 94 92 90 91 96 89 90 92 89 93 96 94 93 90 72 88 92 90 91 93 92 92 91 96 97 97 97 95 95 96 98 98
83 74 72 79 78 80 80 84 90 87 92 94 92 91 91 88 90 90 89 91 93 94 91 92 92 91 91 89 92 93 94 96 97 98 97 96 97 92 87 86 94 92 96
82 90 88 87 85 87 89 89 90 95 94 94 95 97 97 96 96 94 94 95 90 88 88 91 88 88 93 96 95 95 95 97 99 98 98 97 95 95 86 89 85 91 97
94 92 96 93 94 93 92 93 93 95 95 97 96 95 94 94 99 96 96 91 96 90 88 87 93 89 92 92 93 94 96 96 97 94 91 92 92 92 92 74 80 97 98
92 96 97 94 96 93 96 96 94 96 98 99 99 98 94 92 94 98 99 97 93 93 91 89 87 95 95 97 96 96 93 97 94 94 94 93 89 89 95 98 95 97 98
95 95 96 97 98 96 95 96 96 98 99 99 99 97 95 95 94 94 93 100 99 99 96 93 96 99 97 98 100 99 99 94 94 95 94 93 95 96 95 97 97 98 89
92 94 95 93 95 98 98 98 99 99 99 99 99 98 99 98 95 79 79 100 100 100 99 100 100 100 100 100 100 99 94 94 96 97 96 97 97 96 94 94 95 95 95
82 86 95 95 95 94 97 98 99 99 99 99 97 98 98 98 97 98 100 100 100 100 100 100 100 100 100 99 98 96 97 96 97 96 97 97 97 97 96 97 96 96 97
85 87 83 94 95 96 96 98 98 96 93 98 99 97 98 98 94 98 100 99 99 100 99 100 100 100 100 100 100 99 99 98 98 98 98 98 97 97 95 96 96 98 98
86 90 91 92 92 93 95 97 100 100 100 100 100 97 95 98 100 100 100 100 100 100 100 97 99 100 100 99 98 98 99 95 98 98 99 98 97 97 90 94 98 99 99
88 83 88 92 94 90 91 96 96 98 100 100 100 100 100 100 100 100 100 100 100 100 99 99 97 99 99 98 97 97 96 95 95 98 98 98 98 96 91 95 98 99 100
90 88 87 86 89 96 94 90 94 98 92 90 98 100 100 100 100 100 100 100 99 99 99 99 98 98 98 96 95 95 94 98 99 99 98 98 98 96 94 96 98 98 99
91 95 90 87 89 88 87 92 88 92 85 81 91 98 100 100 100 100 100 93 98 98 97 99 98 98 95 92 92 94 96 98 99 99 98 98 98 97 94 93 96 99 99
83 85 82 88 89 90 87 86 90 86 83 80 85 88 99 98 98 98 97 97 95 98 99 99 97 97 95 94 96 97 98 98 99 98 98 98 98 98 93 92 96 97 98
94 93 90 88 90 82 84 82 79 75 71 68 68 74 98 95 92 96 96 97 96 93 96 95 93 92 90 88 88 93 95 94 96 94 95 97 98 98 97 89 92 96 94
97 96 92 93 77 77 75 77 76 76 72 66 54 61 92 93 90 90 96 96 94 94 93 95 93 88 85 84 83 88 91 88 90 89 91 96 97 98 98 97 95 94 93
98 95 93 94 92 85 83 76 70 74 66 62 62 55 78 89 83 84 88 88 95 96 93 92 90 87 81 79 78 80 86 84 82 82 87 93 96 97 97 98 97 98 98
99 98 96 96 95 94 91 88 90 85 71 56 50 52 72 82 88 92 94 94 96 90 89 89 86 84 80 79 82 76 72 78 80 81 82 87 90 98 93 97 97 95 97
99 99 99 98 97 96 94 93 90 91 93 94 88 88 94 94 94 95 96 98 95 94 92 93 93 83 79 75 74 75 74 85 74 85 82 85 85 88 86 88 89 90 92
97 97 97 98 97 99 98 97 96 98 97 95 94 92 93 94 90 94 96 96 96 97 95 95 92 89 79 72 67 77 94 93 82 91 77 82 86 88 86 87 88 86 87
Wind_Speed
15 14 13 10 10 9 9 9 9 8 8 7 7 7 9 10 7 7 7 7 7 4 4 5 4 3 3 2 1 1 1 2 3 4 2 3 3 4 6 4 6 6 5
15 13 14 12 12 11 10 9 9 10 8 9 8 9 8 8 7 9 8 7 7 7 6 6 7 4 4 3 2 3 3 3 3 3 3 2 5 4 6 6 5 4 4
13 14 14 13 13 13 13 9 8 9 9 8 8 9 9 9 8 8 9 8 7 7 6 6 6 5 5 4 3 3 4 3 3 3 3 2 2 1 2 2 3 4 3
13 14 14 14 13 13 12 10 10 10 9 8 8 8 8 8 9 8 8 7 7 7 6 7 7 6 7 6 4 5 4 4 3 3 3 3 3 3 0 2 4 2 4
15 16 17 15 14 13 11 10 9 10 10 8 7 6 7 8 7 7 7 7 7 6 6 6 6 8 10 8 5 6 5 4 4 4 3 2 3 2 3 2 3 3 4
28 20 15 14 14 15 12 12 10 10 9 8 8 8 7 7 9 11 9 6 7 7 7 6 6 8 9 12 13 13 8 7 6 4 4 4 6 3 2 2 1 1 3
32 26 15 13 14 14 13 13 12 11 9 10 9 9 10 8 11 13 14 7 8 8 8 7 6 6 9 7 8 9 11 11 9 5 6 7 4 5 3 1 2 2 3
41 25 14 14 15 13 13 14 12 11 12 10 9 9 7 7 13 13 13 8 7 8 8 9 9 8 8 7 6 5 5 7 8 6 6 5 5 4 5 4 4 2 3
37 13 12 14 14 14 13 13 12 10 10 9 7 9 9 7 12 13 10 7 9 10 9 10 10 10 11 13 8 8 7 6 4 8 8 5 6 9 7 4 2 1 3
13 2 4 9 13 12 11 11 10 9 11 9 10 10 11 9 12 16 14 7 8 8 9 10 15 12 14 14 9 8 8 7 7 4 1 2 4 6 8 6 4 4 3
5 3 7 3 6 7 7 5 6 6 5 4 6 8 12 9 10 17 18 7 8 8 8 6 7 12 13 13 14 8 10 7 6 5 3 1 3 4 4 5 6 5 4
10 10 8 7 6 1 4 3 4 6 7 8 9 9 6 5 9 13 33 14 6 4 5 6 6 9 9 10 9 8 9 6 4 3 2 2 3 3 2 3 5 5 4
6 6 5 6 4 4 5 1 3 6 8 7 7 6 6 6 9 29 23 10 8 3 2 5 8 6 6 5 5 9 9 4 4 3 4 3 3 3 2 1 2 1 2
3 8 8 7 5 2 2 1 2 2 4 7 8 8 5 8 6 1 4 4 2 2 6 6 3 2 2 4 4 3 4 4 5 3 3 3 2 3 2 3 2 1 1
3 3 5 4 5 2 2 3 3 4 6 6 4 3 5 6 7 6 7 5 3 4 4 1 1 1 2 2 3 4 4 4 4 4 4 4 3 3 2 3 3 2 2
4 4 4 3 4 4 4 4 6 0 2 6 7 7 7 4 6 8 8 7 8 8 2 5 3 3 4 5 6 5 4 7 5 5 4 4 4 4 2 2 2 3 3
5 5 4 3 3 3 3 3 4 2 4 6 5 8 10 1 9 11 9 5 4 6 6 6 7 7 8 7 6 6 5 7 7 6 6 5 4 3 4 3 3 3 3
7 9 5 5 4 3 4 3 3 4 4 4 4 9 9 10 10 7 8 8 2 4 6 8 8 7 7 7 6 6 6 5 6 6 5 5 5 4 3 3 4 4 4
5 4 5 5 4 5 4 4 5 5 5 4 1 1 4 4 5 7 10 7 8 8 9 9 8 7 7 7 7 6 6 6 6 6 6 6 6 5 4 4 5 6 5
6 11 10 5 5 4 5 5 5 4 5 4 4 6 2 4 4 6 7 8 9 9 7 9 8 8 7 7 6 6 5 5 6 6 6 6 6 5 5 6 6 4 5
4 4 7 4 4 5 4 4 5 4 5 6 7 7 14 7 7 7 9 10 11 10 9 8 8 8 7 7 7 5 6 6 7 7 7 6 5 4 5 5 5 5 4
4 4 4 4 5 4 5 4 4 4 5 6 8 5 12 6 5 6 8 9 10 10 7 7 7 8 8 8 7 6 7 8 7 7 7 6 6 5 5 4 4 4 5
4 5 5 4 4 4 3 2 3 4 6 7 6 7 5 6 7 8 8 8 6 6 6 7 8 8 7 7 7 7 8 8 10 9 8 7 7 6 6 5 5 4 4
4 5 5 5 4 5 5 5 4 4 5 8 11 9 4 5 5 6 6 4 5 7 7 8 8 10 7 7 6 7 7 8 7 9 11 8 8 8 6 4 5 7 5
4 4 4 4 4 4 5 6 4 1 3 5 2 2 3 4 5 5 5 5 6 7 7 7 6 9 9 10 8 9 11 14 12 12 9 9 10 11 10 8 7 6 7
8 8 7 6 5 4 3 3 2 1 3 6 6 4 1 2 4 2 4 5 5 5 7 6 9 13 11 10 12 14 13 15 12 12 8 8 9 8 9 10 12 8 8
Wind_Direction
194 192 193 198 208 212 204 200 196 201 196 192 183 194 200 203 197 188 196 207 205 214 213 202 204 210 227 229 190 192 153 166 189 299 257 246 277 271 288 249 238 240 249
193 194 197 190 189 196 220 215 192 201 200 200 186 193 198 201 192 195 199 199 195 208 217 199 219 215 240 245 215 214 201 192 173 250 262 261 224 246 252 291 307 293 265
191 191 193 195 193 202 198 201 217 206 201 193 184 191 195 200 193 196 194 199 197 198 207 221 232 210 240 243 237 240 208 194 202 196 268 261 261 286 330 294 292 302 294
192 197 197 197 199 198 200 194 195 218 210 201 193 193 192 194 200 199 198 204 208 208 204 216 219 212 223 235 239 243 233 249 234 232 245 246 236 276 217 276 311 312 301
256 201 205 199 195 192 197 197 189 198 215 202 192 198 195 193 198 192 191 194 201 215 216 220 226 222 222 215 202 231 218 224 230 241 265 259 246 244 207 203 249 290 296
297 243 204 197 192 193 191 193 189 197 208 199 197 193 197 207 205 190 185 192 201 208 219 226 225 228 241 240 231 232 211 213 216 184 219 234 261 233 196 195 211 330 317
289 245 205 197 194 191 191 184 188 196 201 202 201 194 203 203 198 199 201 201 205 211 214 219 234 237 228 239 246 256 236 219 214 201 224 221 225 215 191 202 219 209 243
269 227 198 192 194 188 190 192 182 186 204 202 203 201 200 211 205 209 211 211 214 214 214 213 216 222 226 212 230 232 236 226 224 214 223 237 223 206 189 177 178 203 285
227 190 185 190 191 186 189 194 192 184 192 202 197 191 199 213 206 211 200 204 214 221 218 215 216 220 214 198 195 212 227 234 215 224 226 220 227 206 166 135 208 150 287
23 357 217 202 187 187 193 201 189 183 193 190 194 191 199 206 210 215 214 219 234 242 238 227 217 212 206 213 212 207 218 218 187 186 156 135 186 211 191 200 163 187 206
283 75 279 177 228 192 183 177 190 171 154 138 92 81 81 76 35 341 303 232 222 229 242 252 247 212 221 217 216 210 220 160 163 156 167 249 275 262 227 207 191 170 190
6 8 337 9 358 330 157 157 158 157 122 126 121 124 141 141 118 40 278 245 239 220 241 250 241 213 220 223 197 208 158 130 133 153 168 242 239 243 238 198 182 202 221
343 321 307 32 3 330 314 126 155 150 151 151 149 167 169 221 242 191 231 256 278 270 284 252 228 187 167 155 167 175 180 155 162 180 193 206 214 207 191 140 86 156 217
6 338 345 336 335 302 357 123 108 85 121 160 168 188 209 229 271 216 237 233 288 209 184 215 209 127 181 118 120 175 192 186 182 196 189 195 194 184 159 151 156 152 154
336 319 305 311 317 318 229 219 203 221 163 159 183 209 207 242 240 189 179 202 190 216 190 218 122 183 198 207 230 222 221 207 193 192 174 192 194 185 195 172 158 164 192
290 297 285 311 312 331 333 293 241 301 308 192 152 191 228 225 171 200 204 211 196 174 229 236 215 205 212 224 215 224 202 204 212 187 189 187 192 190 201 201 141 184 208
246 270 278 283 302 307 327 342 291 257 218 193 193 187 233 199 178 176 176 197 240 150 224 235 237 223 221 211 219 198 219 210 199 195 183 182 188 199 176 198 183 189 219
270 259 251 253 235 209 239 261 233 220 231 270 234 215 220 186 186 195 154 132 146 234 226 228 228 221 218 217 213 211 216 189 194 185 178 176 185 197 174 185 195 197 200
267 263 257 254 246 223 211 220 223 237 242 259 280 268 190 159 199 177 186 220 212 219 219 229 230 225 224 217 223 215 204 194 186 171 183 182 191 186 191 199 199 194 178
240 237 236 237 240 222 208 211 213 224 233 248 256 253 110 106 177 190 200 218 233 232 216 223 228 227 227 210 210 212 199 186 179 186 184 189 193 187 190 195 193 176 198
259 273 266 269 253 252 242 222 227 219 219 215 214 214 185 186 207 201 200 212 223 233 227 220 227 228 225 219 217 205 196 195 187 184 182 192 186 189 203 201 191 180 177
299 285 280 264 263 246 250 258 271 258 253 259 273 236 195 209 222 217 213 210 215 223 228 223 226 227 222 216 216 201 191 194 192 183 187 189 189 190 185 194 198 177 176
277 277 279 280 267 255 261 254 289 297 283 271 264 265 192 203 221 229 223 227 215 215 216 220 224 233 222 209 202 194 188 196 195 186 184 187 187 191 179 183 190 179 180
305 286 275 271 270 264 263 264 242 257 288 285 271 283 249 212 214 244 244 220 199 221 216 210 223 230 228 213 199 198 201 196 189 185 182 185 191 183 183 179 184 195 184
321 339 334 299 281 266 260 251 239 331 19 343 324 296 310 250 208 206 216 217 230 217 214 217 223 231 222 225 216 206 204 189 186 185 181 183 195 188 190 194 191 203 199
22 15 9 8 2 342 352 335 340 323 48 335 277 276 309 287 287 263 246 232 223 224 218 215 236 229 219 232 219 213 205 208 198 189 172 185 190 188 188 196 201 199 204